Flag for Luxembourg Weather past 2 weeks in Luxembourg, Luxembourg

Now
57 °F

Fog.


Feels Like: 57 °F
Forecast: 57 / 71 °F
Wind: 2 mph from North

Location: Luxembourg Airport

Current Time: Aug 28, 2014 at 7:16:44 AM

Latest Report: Aug 28, 2014 at 6:50 AM


Visibility: 0 mi

Pressure: 30.04 "Hg

Humidity: 100%

Dew point: 57 °F

Location of LuxembourgLocation

Historic Weather in Luxembourg — Graph

°F

Luxembourg temperature yesterday

Maximum temperature yesterday: 66 °F (at 3:50 PM)
Minimum temperature yesterday: 55 °F (at 6:20 AM)
Average temperature yesterday: 60 °F

Past Weeks' High & Low Weather Summary

 TemperatureHumidityPressure
High66 °F (Aug 14, 5:50 PM)100% (Aug 13, 3:20 PM)30.15 "Hg (Aug 13, 3:20 PM)
Low45 °F (Aug 20, 3:20 AM)39% (Aug 21, 5:50 PM)29.65 "Hg (Aug 26, 2:50 AM)
Average56 °F81%29.95 "Hg
* Reported Aug 13 5:20 AM — Aug 28 5:50 AM, Luxembourg, Weather by CustomWeather, © 2014

Note: Actual official high and low records may vary slightly from our data, if they occured in-between our weather recording intervals... More about our weather records

Advertising

Luxembourg weather history for previous 24 hours

 ConditionsComfort  
Time TempWeatherWind HumidityBarometerVisibility
5:50 AM
Aug 28
57 °FFog.No wind100%30.04 "Hg0 mi
5:20 AM57 °FFog.2 mph100%30.04 "Hg0 mi
4:50 AM57 °FFog.1 mph100%30.04 "Hg0 mi
4:20 AM57 °FCool.2 mph100%30.04 "HgN/A
3:50 AM57 °FCool.2 mph94%30.04 "HgN/A
3:20 AM57 °FCool.3 mph94%30.04 "HgN/A
2:50 AM57 °FCool.2 mph100%30.04 "HgN/A
2:20 AM57 °FCool.2 mph100%30.04 "HgN/A
1:50 AM57 °FClear.3 mph100%30.04 "Hg10 mi
1:20 AM59 °FClear.2 mph94%30.04 "Hg10 mi
12:50 AM59 °FClear.2 mph94%30.04 "Hg10 mi
12:20 AM61 °FPassing clouds.1 mph88%30.04 "HgN/A
11:50 PM
Aug 27
61 °FPassing clouds.1 mph88%30.04 "HgN/A
11:20 PM61 °FPassing clouds.2 mph88%30.04 "HgN/A
10:50 PM61 °FClear.2 mph88%30.04 "Hg10 mi
10:20 PM61 °FClear.1 mph88%30.04 "Hg10 mi
9:50 PM63 °FPassing clouds.No wind83%30.04 "HgN/A
9:20 PM63 °FScattered clouds.1 mph83%30.04 "HgN/A
8:50 PM63 °FPartly sunny.2 mph83%30.04 "HgN/A
7:50 PM64 °FPartly sunny.2 mph78%30.01 "HgN/A
7:20 PM64 °FPartly sunny.3 mph78%30.01 "HgN/A
6:50 PM64 °FPartly sunny.3 mph78%30.01 "HgN/A
6:20 PM66 °FScattered clouds.5 mph73%30.01 "HgN/A
5:50 PM66 °FBroken clouds.2 mph68%30.01 "HgN/A
4:20 PM66 °FBroken clouds.2 mph68%30.01 "HgN/A
3:50 PM66 °FBroken clouds.3 mph68%30.01 "HgN/A
3:20 PM64 °FBroken clouds.5 mph78%30.01 "HgN/A
2:50 PM64 °FBroken clouds.3 mph73%30.01 "HgN/A
2:20 PM64 °FBroken clouds.5 mph78%30.01 "HgN/A
1:50 PM63 °FBroken clouds.3 mph77%30.01 "HgN/A
1:20 PM63 °FBroken clouds.2 mph77%30.01 "HgN/A
12:50 PM63 °FBroken clouds.5 mph77%30.01 "HgN/A
12:20 PM61 °FPartly sunny.5 mph83%30.01 "HgN/A
11:50 AM59 °FPartly sunny.6 mph88%30.01 "HgN/A
11:20 AM61 °FPartly sunny.7 mph83%30.01 "HgN/A
10:50 AM59 °FBroken clouds.7 mph88%30.01 "HgN/A
10:20 AM59 °FPartly sunny.6 mph88%29.98 "HgN/A
9:50 AM57 °FPartly sunny.7 mph94%29.98 "HgN/A
9:20 AM57 °FPartly sunny.6 mph94%29.98 "HgN/A
8:50 AM55 °FPartly sunny.7 mph94%29.95 "HgN/A
8:20 AM55 °FPartly sunny.7 mph100%29.95 "Hg6 mi
7:50 AM55 °FPartly sunny.8 mph100%29.92 "Hg5 mi
7:20 AM57 °FPartly cloudy.2 mph94%29.92 "Hg4 mi
Weather by CustomWeather, © 2014

See weather overviewHow to use our weather pages